#timestamp,LO_Frequency,Hit 
1505138415.3,286047000.4,N
1505138435.2,286047001.6,N
1505138455.9,286046999.8,N
1505138475.7,286046998.3,N
1505138495.6,286047002.8,N
1505138515.4,286047000.2,N
1505138535.2,286047004.0,N
1505138555.0,286047002.3,N
1505138555.9,286047002.3,N
1505138575.8,286047002.3,N
1505138595.6,286046999.9,N
1505138615.4,286047000.2,N
1505138635.3,286047001.8,N
1505138655.1,286047000.3,N
1505138675.8,286046998.3,N
1505138695.7,286046999.6,N
1505138715.5,286046996.6,N
1505138735.3,286046999.4,N
1505138755.2,286047001.0,N
1505138775.9,286047001.9,N
1505138795.7,286047002.8,N
1505138815.6,286046999.4,N
1505138835.4,286047000.4,N
1505138855.2,286047000.5,N
1505138875.0,286047001.0,N
1505138875.9,286047001.0,N
1505138895.8,286046998.2,N
1505138915.6,286046998.7,N
1505138935.4,286046998.1,N
1505138955.3,286046996.5,N
1505138975.1,286047000.6,N
1505138995.8,286046998.8,N
1505139015.7,286046996.5,N
1505139035.5,286047001.2,N
1505139055.3,286047002.8,N
1505139075.2,286046999.9,N
1505139095.9,286047002.5,N
1505139115.7,286047002.7,N
1505139135.6,286047001.4,N
1505139155.4,286046998.5,N
1505139175.2,286047001.0,N
1505139195.0,286047002.7,N
1505139195.9,286047002.7,N
1505139215.8,286046999.9,N
1505139235.6,286046999.9,N
1505139255.4,286046998.3,N
1505139275.3,286046998.5,N
1505139295.1,286046996.8,N
1505139315.8,286046997.8,N
1505139335.7,286046998.1,N
1505139355.5,286046999.1,N
1505139375.3,286046999.6,N
1505139395.2,286046998.5,N
1505139415.9,286047001.1,N
1505139435.7,286047000.8,N
1505139455.6,286046999.2,N
1505139475.4,286046996.9,N
1505139495.2,286046999.0,N
1505139515.0,286046996.7,N
1505139516.0,286046996.7,N
1505139535.8,286046996.7,N
1505139555.6,286046998.8,N
1505139575.4,286046998.5,N
1505139595.3,286046998.3,N
1505139615.1,286047000.8,N
1505139635.8,286047000.4,N
1505139655.7,286047000.0,N
1505139675.5,286047000.1,N
1505139695.3,286046996.8,N
1505139715.2,286046999.2,N
1505139735.9,286046996.8,N
1505139755.7,286046999.5,N
1505139775.6,286046999.5,N
1505139795.4,286046999.5,N
1505139815.2,286046998.9,N
1505139835.1,286046994.9,P
1505139836.0,286046994.9,N
1505139855.8,286046999.1,N
1505139875.6,286047001.1,N
1505139895.5,286047000.4,N
1505139915.3,286046998.3,N
1505139935.1,286047002.2,N
1505139955.9,286047003.1,N
1505139975.7,286047009.2,P
1505139995.5,286047006.4,N
1505140015.4,286047008.7,N
1505140035.2,286047005.2,N
1505140055.0,286047005.6,N
1505140055.9,286047005.6,N
1505140075.8,286047001.7,N
1505140095.6,286047004.4,N
1505140115.4,286046998.1,N
1505140135.2,286046994.9,N
1505140155.1,286046998.1,N
1505140156.0,286046998.1,N
1505140175.8,286047005.9,N
1505140195.6,286047008.1,N
1505140215.5,286047010.4,N
1505140235.3,286047012.3,N
1505140255.1,286047013.5,N
1505140275.9,286047009.6,N
1505140295.7,286047006.5,N
1505140315.5,286047006.8,N
1505140335.4,286047006.5,N
1505140355.2,286047010.5,N
1505140375.0,286047010.2,N
1505140375.9,286047010.2,N
1505140395.8,286047009.8,N
1505140415.6,286047015.5,P
1505140435.4,286047009.3,N
1505140455.3,286047013.4,P
1505140475.1,286047013.1,P
1505140495.8,286047000.4,N
1505140515.7,286046997.9,N
1505140535.5,286046993.5,N
1505140555.3,286046992.4,N
1505140575.2,286046988.7,N
1505140595.9,286046988.7,N
1505140615.7,286046987.5,N
1505140635.6,286046987.3,N
1505140655.4,286046987.4,N
1505140675.2,286046987.2,N
1505140695.0,286046987.4,N
1505140695.9,286046987.4,N
1505140715.8,286046985.7,N
1505140735.6,286046985.4,N
1505140755.4,286046985.8,N
1505140775.3,286046986.8,N
1505140795.1,286046985.8,N
1505140815.8,286046986.3,N
1505140835.7,286046984.1,N
1505140855.5,286046984.5,N
1505140875.3,286046985.4,N
1505140895.2,286046985.0,N
1505140915.9,286046985.1,N
1505140935.7,286046986.0,N
1505140955.5,286046984.5,N
1505140975.4,286046984.1,N
1505140995.2,286046983.8,N
1505141015.0,286046986.0,N
1505141015.9,286046986.0,N
1505141035.8,286046984.1,N
1505141055.6,286046988.2,P
1505141075.4,286046996.9,P
1505141095.3,286046998.5,N
1505141115.1,286046999.9,N
1505141135.8,286047000.9,N
1505141155.7,286046998.2,N
1505141175.5,286046999.1,N
1505141195.3,286046997.2,N
1505141215.2,286046998.5,N
1505141235.9,286046995.1,N
1505141255.7,286046996.0,N
1505141275.6,286046998.0,N
1505141295.4,286046998.8,N
1505141315.2,286047000.7,N
1505141335.1,286047000.6,N
1505141336.0,286047000.6,N
1505141355.8,286047000.9,N
1505141375.6,286046998.1,N
1505141395.4,286046998.1,N
1505141415.3,286047000.8,N
1505141435.1,286047002.7,N
1505141455.8,286047001.6,N
1505141475.7,286047000.8,N
1505141495.5,286047000.8,N
1505141515.3,286046999.0,N
1505141535.2,286046998.3,N
1505141555.9,286046999.1,N
1505141575.7,286046997.3,N
1505141595.6,286046993.7,N
1505141615.4,286046994.2,N
1505141635.2,286046994.9,N
1505141655.1,286046999.3,N
1505141656.0,286046999.3,N
1505141675.8,286046998.5,N
1505141695.6,286047001.1,N
1505141715.5,286046998.8,N
1505141735.3,286046999.4,N
1505141755.1,286046998.0,N
1505141775.8,286046999.0,N
1505141795.7,286046998.5,N
1505141815.5,286047000.4,N
1505141835.3,286047000.7,N
1505141855.2,286046999.3,N
1505141875.9,286046999.0,N
1505141895.7,286046998.2,N
1505141915.6,286046998.2,N
1505141935.4,286046999.3,N
1505141955.2,286046999.3,N
1505141975.1,286047001.1,N
1505141976.0,286047001.1,N
1505141995.8,286047000.9,N
